Location: Franzen
(48.6167°N, 15.3833°E)
Time: 11:19:13
(UTC+00:00)

Courier 1B - Visible Passes

Search period start: 04 August 2021 00:00
Search period end: 14 August 2021 00:00
Orbit: 962 x 1209 km, 28.3° (Epoch: 03 August)

Date Brightness Start Highest point End Pass type
(mag) Time Alt. Az. Time Alt. Az. Time Alt. Az.
04 Aug 9.6 19:53:05 10° SW 19:56:35 14° SSW 19:59:51 10° SSE visible
05 Aug 9.6 18:58:59 10° SW 19:03:03 15° S 19:07:05 10° SSE visible
06 Aug 9.8 20:00:39 10° SSW 20:02:12 11° SSW 20:03:46 10° S visible
07 Aug 9.7 19:05:36 10° SW 19:08:42 13° SSW 19:11:46 10° S visible
